This is the latest recevied weather packets stored in our database for station/object G4KVI. If no packets are shown the sender has not sent any weather packets the latest 10 day(s).
| Time | Temp. | Humidity | Pressure | Rain* | Wind** | Luminosity | Snow |
|---|---|---|---|---|---|---|---|
| 1787559005 | 16.11° C | 72% | 1022.6 hPa | 0 mm | - | 321 W/m² | - |
| 1787558705 | 16.11° C | 73% | 1022.5 hPa | 0 mm | - | 281 W/m² | - |
| 1787558405 | 16.11° C | 72% | 1022.6 hPa | 0 mm | - | 290 W/m² | - |
| 1787558105 | 16.11° C | 73% | 1022.5 hPa | 0 mm | - | 280 W/m² | - |
| 1787557805 | 16.11° C | 73% | 1022.7 hPa | 0 mm | - | 266 W/m² | - |
| 1787557505 | 15.56° C | 75% | 1022.7 hPa | 0 mm | - | 255 W/m² | - |
| 1787557205 | 15.56° C | 74% | 1023.1 hPa | 0 mm | - | 243 W/m² | - |
| 1787556904 | 15.56° C | 75% | 1022.9 hPa | 0 mm | - | 228 W/m² | - |
| 1787556605 | 15.56° C | 75% | 1023 hPa | 0 mm | - | 220 W/m² | - |
| 1787556305 | 15.56° C | 76% | 1023 hPa | 0 mm | - | 210 W/m² | - |
| 1787556004 | 15° C | 77% | 1022.9 hPa | 0 mm | - | 198 W/m² | - |
| 1787555705 | 15° C | 77% | 1022.7 hPa | 0 mm | - | 187 W/m² | - |
| 1787555404 | 15° C | 77% | 1022.7 hPa | 0 mm | - | 175 W/m² | - |
| 1787555105 | 14.44° C | 78% | 1023 hPa | 0 mm | - | 168 W/m² | - |
| 1787554805 | 14.44° C | 79% | 1022.8 hPa | 0 mm | - | 152 W/m² | - |
| 1787554505 | 14.44° C | 79% | 1023.1 hPa | 0 mm | - | 129 W/m² | - |
| 1787554205 | 13.89° C | 80% | 1023 hPa | 0 mm | - | 114 W/m² | - |
| 1787553905 | 13.89° C | 80% | 1022.8 hPa | 0 mm | - | 104 W/m² | - |
| 1787553605 | 13.89° C | 80% | 1023 hPa | 0 mm | - | 100 W/m² | - |
| 1787553305 | 13.89° C | 81% | 1023.1 hPa | 0 mm | - | 96 W/m² | - |
| 1787553005 | 13.33° C | 81% | 1023.2 hPa | 0 mm | - | 91 W/m² | - |
| 1787552704 | 13.33° C | 82% | 1023.4 hPa | 0 mm | - | 85 W/m² | - |
| 1787552405 | 12.78° C | 83% | 1023.1 hPa | 0 mm | - | 78 W/m² | - |
| 1787552105 | 12.78° C | 84% | 1023 hPa | 0 mm | - | 69 W/m² | - |
| 1787551804 | 12.22° C | 86% | 1023 hPa | 0 mm | - | 60 W/m² | - |
* Rain latest hour (hover to see other rain measurements)
** Current wind speed in m/s (hover to see current wind gust speed)